• In Moldova, Republic
  • List of Countries
  • For 7 days
  • Water Temperature
  • Satellite Maps
  • Weather Map
  • Weather Widgets
  • user-avatar
    Login

    Hourly Weather Adelaide

    Today, 20 January, Friday

    Time Temperature Precipitation Wind Pressure Humidity
    00:00 +24°C° 0.9 mm 2 mps 745 mmHg 91%
    01:00 +24°C° 0 mm 3 mps 745 mmHg 91%
    02:00 +22°C° 0 mm 4 mps 746 mmHg 91%
    03:00 +22°C° 0 mm 6 mps 746 mmHg 92%
    04:00 +21°C° 0.1 mm 6 mps 746 mmHg 89%
    05:00 +21°C° 0.1 mm 6 mps 747 mmHg 87%
    06:00 +20°C° 0.1 mm 6 mps 748 mmHg 85%
    07:00 +20°C° 0 mm 6 mps 749 mmHg 82%
    08:00 +20°C° 0 mm 6 mps 750 mmHg 78%
    09:00 +20°C° 0 mm 5 mps 751 mmHg 75%
    10:00 +21°C° 0 mm 5 mps 751 mmHg 69%
    11:00 +22°C° 0 mm 5 mps 751 mmHg 64%
    12:00 +23°C° 0 mm 5 mps 752 mmHg 58%
    13:00 +23°C° 0 mm 5 mps 752 mmHg 56%
    14:00 +23°C° 0 mm 5 mps 752 mmHg 55%
    15:00 +25°C° 0 mm 5 mps 752 mmHg 53%
    16:00 +23°C° 0 mm 5 mps 752 mmHg 56%
    17:00 +21°C° 0 mm 5 mps 753 mmHg 59%
    18:00 +20°C° 0 mm 5 mps 753 mmHg 62%
    19:00 +19°C° 0 mm 5 mps 754 mmHg 67%
    20:00 +17°C° 0 mm 5 mps 754 mmHg 71%
    21:00 +17°C° 0 mm 4 mps 755 mmHg 76%
    22:00 +17°C° 0 mm 4 mps 755 mmHg 77%
    23:00 +15°C° 0 mm 4 mps 755 mmHg 78%

    Tomorrow, 21 January, Saturday

    Time Temperature Precipitation Wind Pressure Humidity
    00:00 +15°C° 0 mm 4 mps 755 mmHg 79%
    01:00 +15°C° 0 mm 4 mps 755 mmHg 79%
    02:00 +14°C° 0 mm 3 mps 755 mmHg 79%
    03:00 +14°C° 0 mm 3 mps 755 mmHg 79%
    04:00 +14°C° 0 mm 3 mps 756 mmHg 77%
    05:00 +14°C° 0 mm 3 mps 756 mmHg 74%
    06:00 +14°C° 0 mm 3 mps 757 mmHg 72%
    07:00 +17°C° 0 mm 3 mps 757 mmHg 63%
    08:00 +19°C° 0 mm 3 mps 757 mmHg 53%
    09:00 +21°C° 0 mm 3 mps 757 mmHg 44%
    10:00 +24°C° 0 mm 2 mps 757 mmHg 38%
    11:00 +27°C° 0 mm 2 mps 756 mmHg 33%
    12:00 +29°C° 0 mm 2 mps 756 mmHg 27%
    13:00 +29°C° 0 mm 2 mps 756 mmHg 27%
    14:00 +30°C° 0 mm 3 mps 755 mmHg 27%
    15:00 +30°C° 0 mm 3 mps 755 mmHg 27%
    16:00 +29°C° 0 mm 3 mps 755 mmHg 31%
    17:00 +28°C° 0 mm 4 mps 755 mmHg 36%
    18:00 +26°C° 0 mm 4 mps 755 mmHg 41%
    19:00 +25°C° 0 mm 4 mps 755 mmHg 48%
    20:00 +22°C° 0 mm 4 mps 755 mmHg 56%
    21:00 +20°C° 0 mm 4 mps 756 mmHg 63%
    22:00 +20°C° 0 mm 4 mps 755 mmHg 65%
    23:00 +20°C° 0 mm 4 mps 755 mmHg 66%

    Day after tomorrow, 22 January, Sunday

    Time Temperature Precipitation Wind Pressure Humidity
    00:00 +19°C° 0 mm 4 mps 755 mmHg 68%
    01:00 +19°C° 0 mm 3 mps 755 mmHg 66%
    02:00 +19°C° 0 mm 3 mps 754 mmHg 64%
    03:00 +19°C° 0 mm 3 mps 754 mmHg 63%
    04:00 +20°C° 0 mm 3 mps 754 mmHg 57%
    05:00 +20°C° 0 mm 3 mps 755 mmHg 52%
    06:00 +21°C° 0 mm 3 mps 755 mmHg 47%
    07:00 +25°C° 0 mm 3 mps 755 mmHg 40%
    08:00 +27°C° 0 mm 3 mps 755 mmHg 32%
    09:00 +30°C° 0 mm 3 mps 755 mmHg 25%
    10:00 +33°C° 0 mm 3 mps 754 mmHg 23%
    11:00 +35°C° 0 mm 2 mps 754 mmHg 21%
    12:00 +37°C° 0 mm 2 mps 753 mmHg 20%
    13:00 +38°C° 0 mm 2 mps 753 mmHg 20%
    14:00 +38°C° 0 mm 2 mps 752 mmHg 20%
    15:00 +37°C° 0 mm 1 mps 751 mmHg 20%
    16:00 +36°C° 0 mm 1 mps 751 mmHg 23%
    17:00 +35°C° 0 mm 1 mps 751 mmHg 25%
    18:00 +35°C° 0 mm 2 mps 751 mmHg 28%
    19:00 +34°C° 0 mm 2 mps 751 mmHg 30%
    20:00 +31°C° 0 mm 2 mps 751 mmHg 31%
    21:00 +30°C° 0 mm 2 mps 752 mmHg 33%
    22:00 +30°C° 0 mm 2 mps 751 mmHg 34%
    23:00 +29°C° 0 mm 1 mps 751 mmHg 34%

    23 January, Monday

    Time Temperature Precipitation Wind Pressure Humidity
    00:00 +29°C° 0 mm 1 mps 751 mmHg 35%
    01:00 +28°C° 0 mm 1 mps 750 mmHg 35%
    02:00 +28°C° 0 mm 2 mps 750 mmHg 36%
    03:00 +27°C° 0 mm 2 mps 749 mmHg 36%
    04:00 +28°C° 0 mm 2 mps 749 mmHg 36%
    05:00 +28°C° 0 mm 2 mps 750 mmHg 36%
    06:00 +28°C° 0 mm 2 mps 750 mmHg 37%
    07:00 +30°C° 0.2 mm 2 mps 750 mmHg 36%
    08:00 +32°C° 0.2 mm 2 mps 750 mmHg 35%
    09:00 +35°C° 0.2 mm 3 mps 750 mmHg 34%
    10:00 +35°C° 0.1 mm 3 mps 750 mmHg 35%
    11:00 +35°C° 0.1 mm 3 mps 750 mmHg 37%
    12:00 +35°C° 0.1 mm 3 mps 750 mmHg 38%
    13:00 +35°C° 0 mm 3 mps 750 mmHg 40%
    14:00 +34°C° 0 mm 3 mps 750 mmHg 41%
    15:00 +34°C° 0 mm 3 mps 750 mmHg 43%
    16:00 +33°C° 0 mm 3 mps 750 mmHg 48%
    17:00 +30°C° 0 mm 3 mps 750 mmHg 53%
    18:00 +29°C° 0 mm 3 mps 750 mmHg 58%
    19:00 +28°C° 0.1 mm 3 mps 751 mmHg 60%
    20:00 +27°C° 0.1 mm 3 mps 752 mmHg 63%
    21:00 +26°C° 0.1 mm 3 mps 753 mmHg 66%
    22:00 +26°C° 0 mm 4 mps 753 mmHg 67%
    23:00 +25°C° 0 mm 4 mps 753 mmHg 67%

    24 January, Tuesday

    Time Temperature Precipitation Wind Pressure Humidity
    00:00 +23°C° 0 mm 5 mps 753 mmHg 67%
    01:00 +22°C° 0 mm 5 mps 754 mmHg 70%
    02:00 +21°C° 0 mm 5 mps 754 mmHg 73%
    03:00 +21°C° 0 mm 5 mps 754 mmHg 76%
    04:00 +20°C° 0 mm 5 mps 755 mmHg 75%
    05:00 +20°C° 0 mm 5 mps 756 mmHg 74%
    06:00 +20°C° 0 mm 5 mps 757 mmHg 74%
    07:00 +21°C° 0 mm 5 mps 758 mmHg 66%
    08:00 +22°C° 0 mm 5 mps 758 mmHg 58%
    09:00 +23°C° 0 mm 5 mps 759 mmHg 50%
    10:00 +23°C° 0 mm 5 mps 759 mmHg 46%
    11:00 +25°C° 0 mm 5 mps 759 mmHg 43%
    12:00 +26°C° 0 mm 5 mps 759 mmHg 40%
    13:00 +26°C° 0 mm 5 mps 759 mmHg 40%
    14:00 +26°C° 0 mm 5 mps 759 mmHg 40%
    15:00 +26°C° 0 mm 6 mps 759 mmHg 40%
    16:00 +23°C° 0 mm 6 mps 759 mmHg 44%
    17:00 +22°C° 0 mm 6 mps 760 mmHg 47%
    18:00 +21°C° 0 mm 6 mps 760 mmHg 51%
    19:00 +20°C° 0 mm 5 mps 761 mmHg 57%
    20:00 +19°C° 0 mm 5 mps 761 mmHg 62%
    21:00 +16°C° 0 mm 5 mps 762 mmHg 68%
    22:00 +16°C° 0 mm 5 mps 762 mmHg 69%
    23:00 +16°C° 0 mm 5 mps 762 mmHg 71%

    25 January, Wednesday

    Time Temperature Precipitation Wind Pressure Humidity
    00:00 +15°C° 0 mm 4 mps 762 mmHg 73%
    01:00 +15°C° 0 mm 4 mps 762 mmHg 73%
    02:00 +15°C° 0 mm 4 mps 762 mmHg 73%
    03:00 +15°C° 0 mm 4 mps 762 mmHg 73%
    04:00 +15°C° 0 mm 4 mps 762 mmHg 71%
    05:00 +15°C° 0 mm 4 mps 762 mmHg 69%
    06:00 +15°C° 0 mm 4 mps 763 mmHg 67%
    07:00 +18°C° 0 mm 3 mps 763 mmHg 59%
    08:00 +20°C° 0 mm 3 mps 763 mmHg 51%
    09:00 +23°C° 0 mm 2 mps 763 mmHg 43%
    10:00 +24°C° 0 mm 3 mps 762 mmHg 38%
    11:00 +26°C° 0 mm 3 mps 762 mmHg 34%
    12:00 +28°C° 0 mm 4 mps 761 mmHg 30%
    13:00 +28°C° 0 mm 4 mps 761 mmHg 31%
    14:00 +28°C° 0 mm 5 mps 761 mmHg 31%
    15:00 +27°C° 0 mm 5 mps 761 mmHg 32%
    16:00 +26°C° 0 mm 6 mps 761 mmHg 37%
    17:00 +23°C° 0 mm 6 mps 761 mmHg 43%
    18:00 +22°C° 0 mm 6 mps 761 mmHg 48%
    19:00 +20°C° 0 mm 5 mps 761 mmHg 54%
    20:00 +19°C° 0 mm 5 mps 762 mmHg 61%
    21:00 +17°C° 0 mm 5 mps 762 mmHg 67%
    22:00 +17°C° 0 mm 5 mps 762 mmHg 69%
    23:00 +16°C° 0 mm 5 mps 762 mmHg 71%
    Show more